Retour au catalogue

KUIPER-00178

ActifCommunicationsLEO
NORAD 67767·PAYLOAD·🇺🇸 United States

Lancé Feb 12, 2026 depuis Guiana Space Centre

Loading…

Prochains Passages (prochaines 24 heures)

TLE

FraisSource: CelesTrak SupGP

Époque: Sep 14, 2026, 20:10 UTC

1 67767C 26030D   26257.84063657  .00003528  00000+0  46187-3 0  2578
2 67767  51.8987  96.6833 0000708 102.9033  98.1540 14.79926843    12

Suivez KUIPER-00178 en temps réel avec AllMySat

Download on the App Store